[[{"header":{"parameterUnit":"m.s-1","parameterCategory":1,"la1":30.2991,"la2":30.254,"lo1":-89.0895,"lo2":-89.0444,"dy":0.0017,"dx":0.0017,"nx":28,"ny":28,"refTime":"2023-03-29T21:00:00:Z","depth":0,"parameterNumber":2,"parameterNumberName":"U-component_of_WINDS"},"data":[0,0,0,0,0,0,0,0,0,0,0,0,0,0,0,0,0,0,0,0,0,0,0,0,0,0,0,0,0,0,0,0,0,0,0,0,0,0,0,0,0,0,0,0,0,0,0,0,0,0,0,0,0,0,0,0,0,0,-4.4818,-4.4819,0,-4.4889,-4.489,-4.489,-4.4805,-4.4802,-4.4798,-4.4795,-4.4871,-4.4876,-4.4881,0,0,0,0,0,0,0,0,0,0,0,0,0,-4.4614,-4.4618,-4.4818,-4.4819,-4.482,-4.4889,-4.489,-4.4891,-4.4805,-4.4802,-4.4798,-4.4794,-4.4869,-4.4875,-4.4881,0,0,0,0,0,0,0,0,0,0,0,0,0,-4.4695,-4.4619,-4.4818,-4.4786,-4.4783,-4.4888,-4.489,-4.4891,-4.4806,-4.4801,-4.4797,-4.4792,-4.4867,-4.4875,-4.4882,-4.5023,0,0,-4.4905,-4.4908,0,0,0,0,0,0,0,0,-4.4691,-4.4703,-4.479,-4.4788,-4.4786,-4.4833,-4.4845,-4.4935,-4.4807,-4.4798,-4.4795,-4.479,-4.4862,-4.487,-4.4894,-4.5027,-4.503,-4.4905,-4.491,-4.4913,-4.4915,0,0,0,0,0,0,0,-4.4685,-4.47,-4.4846,-4.4791,-4.4789,-4.4769,-4.4775,-4.4862,-4.4856,-4.4798,-4.4792,-4.4801,-4.486,-4.4887,-4.4895,-4.5031,-4.4905,-4.4912,-4.4916,-4.4919,-4.5285,-4.529,0,0,0,0,0,0,-4.4683,-4.4695,-4.4844,-4.4848,-4.4726,-4.4777,-4.4784,-4.4823,-4.4855,-4.4855,-4.4805,-4.4797,-4.4876,-4.4886,-4.4897,-4.5066,-4.4913,-4.492,-4.4924,-4.528,-4.5286,-4.5292,0,0,0,0,0,0,-4.4679,-4.4697,-4.4841,-4.477,-4.4787,-4.4785,-4.483,-4.4827,-4.4853,-4.486,-4.4859,-4.4833,-4.4873,-4.4887,-4.4993,-4.5067,-4.4923,-4.493,-4.5274,-4.5282,-4.5289,-4.5403,0,0,0,0,0,0,-4.4673,-4.4696,-4.4749,-4.4772,-4.4791,-4.4935,-4.4834,-4.4831,-4.4865,-4.4855,-4.4886,-4.4886,-4.487,-4.4982,-4.5,-4.5075,-4.4936,-4.5267,-4.5277,-4.5287,-4.5393,-4.5414,-4.5432,0,0,0,0,0,-4.4666,-4.4778,-4.4752,-4.477,-4.4857,-4.4939,-4.495,-4.4928,-4.4872,-4.4925,-4.493,-4.4885,-4.5056,-4.4993,-4.5013,-4.5091,-4.5262,-4.5274,-4.5286,-4.5384,-4.541,-4.5432,0,0,0,0,0,0,-4.4765,-4.4781,-4.4751,-4.4874,-4.4906,-4.4924,-4.4991,-4.4956,-4.5005,-4.4994,-4.4966,-4.4973,-4.5087,-4.5099,-4.5029,-4.523,-4.515,-4.5166,-4.5218,-4.5243,-4.5262,-4.5257,-4.4942,0,0,0,0,0,-4.48,-4.4865,-4.4876,-4.4983,-4.5,-4.4993,-4.5028,-4.5009,-4.5041,-4.5054,-4.5067,-4.5101,-4.5162,-4.5203,-4.5259,-4.5394,-4.5401,-4.5458,-4.5478,-4.5494,-4.5508,-4.5582,-4.5608,-4.5331,-4.5331,-4.5331,0,0,-4.4875,-4.4892,-4.4934,-4.5003,-4.5025,-4.5094,-4.5005,-4.5081,-4.5132,-4.5066,-4.5167,-4.5178,-4.5214,-4.5335,-4.5389,-4.5349,-4.5587,-4.5509,-4.5522,-4.5528,-4.5597,-4.5624,-4.5647,-4.5339,-4.5337,-4.5336,0,0,-4.5047,-4.5065,-4.5157,-4.5181,-4.5216,-4.5211,-4.5233,-4.5257,-4.5262,-4.5362,-4.5315,-4.5376,-4.5481,-4.5509,-4.5538,-4.5722,-4.5683,-4.5741,-4.5844,-4.5917,-4.5939,-4.5958,-4.6025,-4.6049,-4.5755,-4.5756,-4.5756,0,-4.5135,-4.5236,-4.5209,-4.5289,-4.5321,-4.5264,-4.5358,-4.5383,-4.5435,-4.5459,-4.5413,-4.5546,-4.5566,-4.5694,-4.5739,-4.5763,-4.5789,-4.5737,-4.5937,-4.5956,-4.5974,-4.6038,-4.6063,-4.5763,-4.5762,-4.5761,-4.576,0,-4.5344,-4.5415,-4.5485,-4.5536,-4.5576,-4.5663,-4.5651,-4.5695,-4.5673,-4.5673,-4.5777,-4.58,-4.586,-4.5889,-4.5868,-4.6015,-4.599,-4.5941,-4.586,-4.6008,-4.6067,-4.6091,-4.5773,-4.577,-4.5768,-4.5766,0,0,-4.5579,-4.5615,-4.5641,-4.5664,-4.5699,-4.5753,-4.5838,-4.5897,-4.5936,-4.5975,-4.6046,-4.6138,-4.6093,-4.6125,-4.6107,-4.6171,-4.6317,-4.6115,-4.6115,-4.6153,-4.6482,-4.6519,-4.6548,-4.6291,-4.6296,-4.6299,-4.648,0,-4.5751,-4.5897,-4.5876,-4.6017,-4.6083,-4.603,-4.6104,-4.6135,-4.6138,-4.6195,-4.6198,-4.6264,-4.62,-4.6219,-4.628,-4.6287,-4.6383,-4.6273,-4.6359,-4.6363,-4.6352,-4.6578,-4.6617,-4.6786,-4.6503,-4.6507,-4.6509,0,-4.5972,-4.6018,-4.6165,-4.6191,-4.6218,-4.6285,-4.6338,-4.6393,-4.6427,-4.6424,-4.6461,-4.6432,-4.6519,-4.6436,-4.6556,-4.6481,-4.6515,-4.6524,-4.653,-4.6538,-4.6445,-4.6594,-4.684,-4.6865,-4.6545,-4.6543,-4.654,0,-4.613,-4.6229,-4.633,-4.6351,-4.6383,-4.6432,-4.6448,-4.6477,-4.6514,-4.6561,-4.6585,-4.6642,-4.6674,-4.6719,-4.6707,-4.6647,-4.6831,-4.6746,-4.6832,-4.6833,-4.6874,-4.6872,-4.713,-4.6895,-4.6894,-4.6894,-4.6893,0,-4.6325,-4.6418,-4.6401,-4.6464,-4.6567,-4.6543,-4.6646,-4.6655,-4.6682,-4.6746,-4.6704,-4.6766,-4.6745,-4.6807,-4.6798,-4.69,-4.6914,-4.6916,-4.6913,-4.692,-4.692,-4.6943,-4.6931,-4.6901,-4.6899,-4.6898,-4.6897,0,-4.6519,-4.6512,-4.6619,-4.6641,-4.6649,-4.6724,-4.6743,-4.6802,-4.6802,-4.6885,-4.6903,-4.6903,-4.6973,-4.6965,-4.7044,-4.7038,-4.7165,-4.7147,-4.7153,-4.7149,-4.7237,-4.7229,-4.7519,-4.7557,-4.7297,-4.7299,-4.7301,0,-4.6645,-4.6715,-4.6744,-4.6784,-4.6803,-4.6868,-4.6906,-4.6886,-4.6927,-4.6972,-4.7027,-4.7093,-4.7144,-4.7259,-4.7267,-4.7328,-4.7312,-4.7409,-4.7321,-4.7327,-4.7315,-4.7311,-4.7319,-4.7427,-4.743,-4.7432,-4.7434,0,-4.6869,-4.6862,-4.6917,-4.6973,-4.7019,-4.7061,-4.71,-4.7135,-4.7119,-4.7168,-4.7238,-4.7279,-4.7359,-4.7426,-4.7483,-4.7501,-4.7466,-4.7462,-4.7486,-4.7494,-4.7496,-4.7497,-4.7202,-4.7456,-4.7454,-4.7452,-4.7451,-4.745,-4.7033,-4.7093,-4.7124,-4.7188,-4.7214,-4.7252,-4.7309,-4.7316,-4.7374,-4.7437,-4.7422,-4.7503,-4.7537,-4.761,-4.7634,-4.7698,-4.7662,-4.7696,-4.7705,-4.7713,-4.7724,-4.7485,-4.7708,-4.7707,-4.7707,-4.7706,-4.7706,0,-4.7256,-4.7273,-4.7332,-4.7387,-4.7438,-4.7399,-4.744,-4.7486,-4.7557,-4.7591,-4.7642,-4.7725,-4.779,-4.7804,-4.7866,-4.7915,-4.79,-4.7932,-4.7929,-4.7934,-4.7752,-4.7726,-4.7942,-4.7942,-4.7942,-4.7942,-4.7942,-4.7942,-4.7378,-4.7478,-4.7475,-4.7589,-4.7606,-4.7683,-4.771,-4.7745,-4.7772,-4.7866,-4.7919,-4.7927,-4.7954,-4.8019,-4.8077,-4.808,-4.8105,-4.8143,-4.814,-4.797,-4.7946,-4.7924,-4.7899,-4.8149,-4.8149,-4.8316,-4.8318,-4.8319]},{"header":{"parameterUnit":"m.s-1","parameterCategory":1,"la1":30.2991,"la2":30.254,"lo1":-89.0895,"lo2":-89.0444,"dy":0.0017,"dx":0.0017,"nx":28,"ny":28,"refTime":"2023-03-29T21:00:00:Z","depth":0,"parameterNumber":3,"parameterNumberName":"V-component_of_WINDS"},"data":[0,0,0,0,0,0,0,0,0,0,0,0,0,0,0,0,0,0,0,0,0,0,0,0,0,0,0,0,0,0,0,0,0,0,0,0,0,0,0,0,0,0,0,0,0,0,0,0,0,0,0,0,0,0,0,0,0,0,0.2958,0.2959,0,0.3038,0.3039,0.304,0.3073,0.3073,0.3073,0.3073,0.3156,0.3158,0.316,0,0,0,0,0,0,0,0,0,0,0,0,0,0.2839,0.2841,0.2958,0.2959,0.296,0.3038,0.3039,0.304,0.3073,0.3073,0.3073,0.3073,0.3155,0.3158,0.316,0,0,0,0,0,0,0,0,0,0,0,0,0,0.2902,0.2841,0.2958,0.2986,0.299,0.3038,0.3039,0.304,0.3073,0.3073,0.3073,0.3073,0.3154,0.3157,0.3161,0.3187,0,0,0.3172,0.3173,0,0,0,0,0,0,0,0,0.2898,0.2906,0.2981,0.2984,0.2988,0.3045,0.3027,0.309,0.3073,0.3042,0.3073,0.3072,0.3119,0.3126,0.3141,0.3191,0.3195,0.3172,0.3174,0.3176,0.3177,0,0,0,0,0,0,0,0.2894,0.2903,0.299,0.2982,0.2987,0.2996,0.3005,0.3039,0.3081,0.3044,0.3047,0.3056,0.3121,0.3138,0.3143,0.3196,0.3172,0.3175,0.3177,0.3179,0.3275,0.3275,0,0,0,0,0,0,0.2884,0.2899,0.2987,0.2992,0.2942,0.2998,0.3008,0.3027,0.308,0.3088,0.3056,0.3057,0.3132,0.3139,0.3146,0.3183,0.3176,0.3179,0.3181,0.3274,0.3275,0.3275,0,0,0,0,0,0,0.2882,0.2892,0.2984,0.2946,0.2959,0.3001,0.3022,0.3029,0.3045,0.3089,0.3097,0.3065,0.3132,0.3141,0.3177,0.3186,0.318,0.3184,0.3274,0.3275,0.3275,0.3254,0,0,0,0,0,0,0.2878,0.2891,0.29,0.2946,0.2961,0.3013,0.3022,0.3031,0.3051,0.3054,0.31,0.3107,0.3132,0.3172,0.3181,0.3191,0.3186,0.3273,0.3274,0.3275,0.3255,0.3254,0.3254,0,0,0,0,0,0.2874,0.2891,0.29,0.2911,0.2973,0.3013,0.3022,0.305,0.3052,0.3063,0.3091,0.3106,0.3183,0.3175,0.3186,0.3197,0.3273,0.3274,0.3275,0.3255,0.3254,0.3254,0,0,0,0,0,0,0.2845,0.2897,0.2909,0.2941,0.2972,0.3019,0.3033,0.3048,0.308,0.3081,0.3115,0.3125,0.3159,0.3181,0.3171,0.3227,0.323,0.3233,0.3211,0.3211,0.321,0.3205,0.3189,0,0,0,0,0,0.2842,0.2869,0.2914,0.2939,0.2954,0.2991,0.3009,0.3028,0.3062,0.3076,0.3107,0.314,0.3172,0.3193,0.3224,0.3258,0.327,0.3271,0.3271,0.327,0.3273,0.3295,0.3296,0.3279,0.3279,0.3279,0,0,0.2837,0.2869,0.2884,0.2934,0.296,0.2989,0.3001,0.3031,0.3053,0.308,0.3117,0.3141,0.318,0.3216,0.3233,0.3236,0.328,0.3271,0.3271,0.3274,0.3296,0.3298,0.3299,0.3279,0.3279,0.3279,0,0,0.2843,0.2869,0.2893,0.292,0.296,0.2985,0.2991,0.3035,0.3052,0.3089,0.3111,0.3139,0.3193,0.3221,0.3242,0.3261,0.3276,0.327,0.3269,0.329,0.3291,0.3293,0.3301,0.3304,0.3272,0.3272,0.3272,0,0.2831,0.2874,0.2904,0.2933,0.2955,0.2981,0.3007,0.3032,0.308,0.3096,0.3098,0.3168,0.3196,0.324,0.3245,0.326,0.327,0.3265,0.3289,0.329,0.3292,0.3301,0.3304,0.3271,0.3271,0.3271,0.3272,0,0.286,0.2889,0.2904,0.2951,0.2975,0.3002,0.3037,0.3058,0.3075,0.31,0.3139,0.3174,0.3215,0.3226,0.3243,0.3273,0.3274,0.3282,0.3286,0.3293,0.3301,0.3305,0.327,0.327,0.3271,0.3271,0,0,0.2848,0.2912,0.2917,0.294,0.2987,0.3011,0.3041,0.308,0.3099,0.3132,0.3158,0.3205,0.3213,0.3237,0.3258,0.3276,0.3292,0.3283,0.3284,0.3285,0.3329,0.3324,0.3327,0.3302,0.3303,0.3303,0.3327,0,0.2861,0.2914,0.2943,0.2984,0.3013,0.304,0.3066,0.3099,0.3124,0.3153,0.3181,0.3214,0.3221,0.3236,0.3255,0.3286,0.3301,0.3284,0.3329,0.333,0.3319,0.3331,0.3325,0.3345,0.333,0.3331,0.3331,0,0.2883,0.2916,0.2961,0.3007,0.3021,0.3043,0.3083,0.311,0.3149,0.3166,0.3194,0.3215,0.3249,0.325,0.3298,0.3286,0.3306,0.3324,0.3325,0.3331,0.3331,0.3339,0.3352,0.3356,0.3336,0.3336,0.3335,0,0.2872,0.2928,0.2963,0.2981,0.3036,0.3051,0.3075,0.3113,0.3136,0.3171,0.3187,0.3225,0.3247,0.3277,0.3309,0.3306,0.3355,0.3358,0.3371,0.3371,0.3381,0.338,0.3398,0.3391,0.3391,0.3391,0.3391,0,0.2884,0.2911,0.2959,0.298,0.3012,0.3045,0.3076,0.3102,0.3136,0.3164,0.3189,0.3215,0.3255,0.3286,0.3311,0.3349,0.3358,0.3374,0.338,0.3372,0.3371,0.3387,0.3387,0.3392,0.3392,0.3392,0.3392,0,0.2878,0.2911,0.2951,0.2999,0.3012,0.3034,0.3076,0.3099,0.3125,0.3161,0.3171,0.3213,0.3252,0.3286,0.3337,0.3354,0.3393,0.34,0.338,0.3384,0.3396,0.3395,0.3427,0.3434,0.342,0.342,0.342,0,0.2884,0.2905,0.2956,0.2977,0.3,0.3033,0.3057,0.3091,0.3115,0.3162,0.318,0.322,0.3254,0.3315,0.3351,0.3391,0.34,0.3409,0.3406,0.3399,0.3403,0.3402,0.3405,0.3409,0.3409,0.3409,0.3409,0,0.2891,0.2907,0.294,0.298,0.3008,0.3041,0.3074,0.309,0.3131,0.3157,0.3197,0.3224,0.3277,0.3317,0.3362,0.3387,0.3406,0.3409,0.3415,0.3407,0.3395,0.3404,0.3381,0.3408,0.3408,0.3408,0.3408,0.3408,0.2892,0.2913,0.2954,0.299,0.302,0.3051,0.3076,0.3106,0.314,0.3185,0.3204,0.3245,0.3286,0.3347,0.3373,0.3407,0.341,0.3418,0.342,0.3422,0.3421,0.3389,0.3415,0.3415,0.3415,0.3415,0.3415,0,0.2903,0.293,0.2964,0.3011,0.304,0.3055,0.3094,0.3118,0.3154,0.319,0.3223,0.3271,0.3311,0.3351,0.3394,0.3413,0.3423,0.3423,0.3423,0.3429,0.3415,0.3406,0.3415,0.3415,0.3415,0.3415,0.3415,0.3415,0.2912,0.2949,0.297,0.3023,0.3051,0.3091,0.3113,0.3143,0.3172,0.3224,0.3257,0.3283,0.3322,0.3368,0.3406,0.3417,0.3432,0.3431,0.3444,0.343,0.343,0.3429,0.3422,0.3433,0.3433,0.3456,0.3456,0.3456]}]]